| time (UTC) | temp F | wind direction | speed knots | gust knots | rain 1hr in | rain 24hr in | rain mn in | humidity % | barometer mb |
| 20260505170416 | 73 | 308 | 1.7 | 3.5 | 0.00 | 0.00 | 0.00 | 57 | 1010.1 |
| 20260505165912 | 72 | 18 | 0.0 | 6.1 | 0.00 | 0.00 | 0.00 | 60 | 1009.9 |
| 20260505165408 | 73 | 282 | 0.0 | 3.5 | 0.00 | 0.00 | 0.00 | 58 | 1009.9 |
| 20260505164903 | 72 | 269 | 2.6 | 3.5 | 0.00 | 0.00 | 0.00 | 57 | 1009.7 |
| 20260505164400 | 71 | 4 | 6.1 | 7.0 | 0.00 | 0.00 | 0.00 | 61 | 1009.9 |
| 20260505163859 | 72 | 41 | 1.7 | 4.3 | 0.00 | 0.00 | 0.00 | 56 | 1010.0 |
| 20260505163357 | 72 | 7 | 2.6 | 5.2 | 0.00 | 0.00 | 0.00 | 56 | 1009.7 |
| 20260505162855 | 72 | 285 | 1.7 | 2.6 | 0.00 | 0.00 | 0.00 | 58 | 1009.5 |
| 20260505162351 | 72 | 348 | 1.7 | 5.2 | 0.00 | 0.00 | 0.00 | 61 | 1009.9 |
| 20260505161848 | 71 | 0 | 1.7 | 6.1 | 0.00 | 0.00 | 0.00 | 58 | 1009.7 |
| 20260505161345 | 72 | 340 | 1.7 | 3.5 | 0.00 | 0.00 | 0.00 | 59 | 1009.6 |
| 20260505160842 | 72 | 231 | 1.7 | 2.6 | 0.00 | 0.00 | 0.00 | 52 | 1009.7 |
| 20260505160341 | 71 | 213 | 1.7 | 2.6 | 0.00 | 0.00 | 0.00 | 56 | 1009.6 |
| 20260505153319 | 71 | 348 | 3.5 | 6.1 | 0.00 | 0.00 | 0.00 | 58 | 1009.7 |
| 20260505152816 | 72 | 303 | 0.9 | 2.6 | 0.00 | 0.00 | 0.00 | 60 | 1009.5 |
| 20260505152313 | 71 | 191 | 0.0 | 2.6 | 0.00 | 0.00 | 0.00 | 58 | 1009.6 |
| 20260505151808 | 72 | 337 | 1.7 | 3.5 | 0.00 | 0.00 | 0.00 | 56 | 1009.2 |
| 20260505151305 | 73 | 322 | 1.7 | 2.6 | 0.00 | 0.00 | 0.00 | 57 | 1009.3 |
| 20260505150802 | 71 | 246 | 0.0 | 2.6 | 0.00 | 0.00 | 0.00 | 58 | 1009.1 |
| 20260505150259 | 70 | 235 | 1.7 | 3.5 | 0.00 | 0.00 | 0.00 | 56 | 1009.2 |
| 20260505140229 | 64 | 153 | 3.5 | 5.2 | 0.00 | 0.00 | 0.00 | 65 | 1008.7 |
| 20260505130153 | 58 | 106 | 3.5 | 4.3 | 0.00 | 0.00 | 0.00 | 75 | 1007.8 |
| 20260505124642 | 58 | 109 | 2.6 | 3.5 | 0.00 | 0.00 | 0.00 | 75 | 1007.9 |
| 20260505124139 | 58 | 119 | 1.7 | 4.3 | 0.00 | 0.00 | 0.00 | 74 | 1007.7 |
| 20260505123635 | 58 | 114 | 0.9 | 2.6 | 0.00 | 0.00 | 0.00 | 73 | 1007.7 |
| 20260505123132 | 59 | 123 | 1.7 | 4.3 | 0.00 | 0.00 | 0.00 | 72 | 1007.8 |
| 20260505122628 | 59 | 119 | 3.5 | 4.3 | 0.00 | 0.00 | 0.00 | 72 | 1007.7 |
| 20260505122126 | 60 | 130 | 2.6 | 5.2 | 0.00 | 0.00 | 0.00 | 70 | 1007.6 |
| 20260505121622 | 60 | 152 | 3.5 | 4.3 | 0.00 | 0.00 | 0.00 | 69 | 1007.6 |
| 20260505121119 | 59 | 146 | 4.3 | 6.1 | 0.00 | 0.00 | 0.00 | 70 | 1007.4 |
| 20260505120615 | 59 | 151 | 1.7 | 6.1 | 0.00 | 0.00 | 0.00 | 70 | 1007.5 |
| 20260505120112 | 60 | 157 | 2.6 | 5.2 | 0.00 | 0.00 | 0.00 | 69 | 1007.3 |
| 20260505115612 | 60 | 163 | 0.9 | 4.3 | 0.00 | 0.00 | 0.00 | 70 | 1007.4 |
| 20260505115109 | 59 | 146 | 0.9 | 2.6 | 0.00 | 0.00 | 0.00 | 70 | 1007.5 |
| 20260505114606 | 59 | 155 | 3.5 | 4.3 | 0.00 | 0.00 | 0.00 | 72 | 1007.3 |
| 20260505114102 | 59 | 144 | 0.9 | 1.7 | 0.00 | 0.00 | 0.00 | 72 | 1007.0 |
| 20260505113559 | 59 | 58 | 0.0 | 1.7 | 0.00 | 0.00 | 0.00 | 71 | 1007.2 |
| 20260505113055 | 60 | 87 | 0.0 | 2.6 | 0.00 | 0.00 | 0.00 | 70 | 1007.0 |
| 20260505112552 | 60 | 136 | 1.7 | 3.5 | 0.00 | 0.00 | 0.00 | 68 | 1007.2 |
| 20260505112050 | 61 | 136 | 1.7 | 3.5 | 0.00 | 0.00 | 0.00 | 67 | 1007.2 |
| 20260505111544 | 61 | 170 | 2.6 | 7.0 | 0.00 | 0.00 | 0.00 | 65 | 1007.0 |
| 20260505111040 | 61 | 148 | 3.5 | 4.3 | 0.00 | 0.00 | 0.00 | 65 | 1007.1 |
| 20260505110537 | 61 | 148 | 2.6 | 5.2 | 0.00 | 0.00 | 0.00 | 64 | 1006.9 |
| 20260505102009 | 62 | 150 | 3.5 | 7.0 | 0.00 | 0.00 | 0.00 | 61 | 1006.4 |
| 20260505101508 | 61 | 142 | 1.7 | 7.0 | 0.00 | 0.00 | 0.00 | 63 | 1006.4 |
| 20260505101004 | 62 | 180 | 0.0 | 5.2 | 0.00 | 0.00 | 0.00 | 62 | 1006.3 |
| 20260505100501 | 62 | 158 | 4.3 | 4.3 | 0.00 | 0.00 | 0.00 | 61 | 1006.4 |
| 20260505095957 | 62 | 150 | 3.5 | 6.1 | 0.00 | 0.00 | 0.00 | 62 | 1006.4 |
| 20260505095454 | 61 | 147 | 3.5 | 4.3 | 0.00 | 0.00 | 0.00 | 63 | 1006.2 |
| 20260505094950 | 61 | 148 | 3.5 | 3.5 | 0.00 | 0.00 | 0.00 | 64 | 1006.4 |
| 20260505094447 | 61 | 136 | 1.7 | 2.6 | 0.00 | 0.00 | 0.00 | 66 | 1006.0 |
| 20260505093943 | 60 | 130 | 2.6 | 2.6 | 0.00 | 0.00 | 0.00 | 68 | 1006.3 |
| 20260505093440 | 60 | 127 | 0.9 | 1.7 | 0.00 | 0.00 | 0.00 | 66 | 1006.2 |
| 20260505092937 | 61 | 114 | 0.0 | 1.7 | 0.00 | 0.00 | 0.00 | 66 | 1006.2 |
| 20260505092434 | 61 | 124 | 0.0 | 1.7 | 0.00 | 0.00 | 0.00 | 65 | 1006.1 |
| 20260505091932 | 61 | 122 | 0.9 | 2.6 | 0.00 | 0.00 | 0.00 | 65 | 1006.2 |
| 20260505091429 | 61 | 92 | 0.9 | 1.7 | 0.00 | 0.00 | 0.00 | 65 | 1006.2 |
| 20260505090927 | 61 | 61 | 0.0 | 0.9 | 0.00 | 0.00 | 0.00 | 66 | 1006.3 |
| 20260505090425 | 61 | 111 | 1.7 | 1.7 | 0.00 | 0.00 | 0.00 | 65 | 1006.0 |
| 20260505085922 | 62 | 166 | 0.0 | 1.7 | 0.00 | 0.00 | 0.00 | 64 | 1006.1 |
| 20260505085420 | 63 | 172 | 0.9 | 3.5 | 0.00 | 0.00 | 0.00 | 62 | 1005.9 |
| 20260505084918 | 64 | 154 | 4.3 | 6.1 | 0.00 | 0.00 | 0.00 | 61 | 1005.9 |
| 20260505084416 | 63 | 157 | 4.3 | 5.2 | 0.00 | 0.00 | 0.00 | 61 | 1005.6 |
| 20260505083914 | 63 | 147 | 2.6 | 5.2 | 0.00 | 0.00 | 0.00 | 62 | 1005.9 |
| 20260505083411 | 62 | 151 | 3.5 | 6.1 | 0.00 | 0.00 | 0.00 | 63 | 1005.6 |
| 20260505082907 | 60 | 148 | 3.5 | 4.3 | 0.00 | 0.00 | 0.00 | 69 | 1005.7 |
| 20260505082403 | 59 | 101 | 1.7 | 3.5 | 0.00 | 0.00 | 0.00 | 71 | 1005.6 |
| 20260505081900 | 60 | 108 | 2.6 | 2.6 | 0.00 | 0.00 | 0.00 | 69 | 1005.6 |
| 20260505081356 | 60 | 100 | 0.0 | 2.6 | 0.00 | 0.00 | 0.00 | 69 | 1005.5 |
| 20260505080853 | 59 | 111 | 1.7 | 2.6 | 0.00 | 0.00 | 0.00 | 72 | 1005.6 |
| 20260505080349 | 58 | 134 | 0.9 | 3.5 | 0.00 | 0.00 | 0.00 | 74 | 1005.6 |
| 20260505075845 | 58 | 110 | 0.9 | 2.6 | 0.00 | 0.00 | 0.00 | 75 | 1005.6 |
| 20260505075342 | 59 | 145 | 2.6 | 4.3 | 0.00 | 0.00 | 0.00 | 73 | 1005.4 |
| 20260505074839 | 59 | 145 | 2.6 | 3.5 | 0.00 | 0.00 | 0.00 | 72 | 1005.5 |
| 20260505074336 | 59 | 140 | 2.6 | 3.5 | 0.00 | 0.00 | 0.00 | 72 | 1005.5 |
| 20260505073834 | 59 | 153 | 0.0 | 0.9 | 0.00 | 0.00 | 0.00 | 73 | 1005.7 |
| 20260505073332 | 59 | 321 | 0.9 | 2.6 | 0.00 | 0.00 | 0.00 | 72 | 1005.4 |
| 20260505072828 | 60 | 33 | 0.0 | 2.6 | 0.00 | 0.00 | 0.00 | 70 | 1005.2 |
| 20260505072324 | 60 | 246 | 0.0 | 1.7 | 0.00 | 0.00 | 0.00 | 67 | 1005.3 |
| 20260505071820 | 60 | 145 | 0.0 | 2.6 | 0.00 | 0.00 | 0.00 | 68 | 1005.0 |
| 20260505071317 | 61 | 316 | 1.7 | 1.7 | 0.00 | 0.00 | 0.00 | 68 | 1005.1 |
| 20260505070815 | 61 | 55 | 0.0 | 1.7 | 0.00 | 0.00 | 0.00 | 66 | 1005.2 |
| 20260505070311 | 62 | 98 | 0.0 | 1.7 | 0.00 | 0.00 | 0.00 | 64 | 1004.8 |
| 20260505065807 | 62 | 225 | 0.0 | 1.7 | 0.00 | 0.00 | 0.00 | 62 | 1004.9 |
| 20260505065304 | 62 | 269 | 0.0 | 1.7 | 0.00 | 0.00 | 0.00 | 62 | 1004.8 |
| 20260505064801 | 62 | 222 | 0.0 | 2.6 | 0.00 | 0.00 | 0.00 | 62 | 1004.9 |
| 20260505064258 | 63 | 226 | 0.0 | 2.6 | 0.00 | 0.00 | 0.00 | 62 | 1004.7 |
| 20260505063756 | 66 | 324 | 1.7 | 2.6 | 0.00 | 0.00 | 0.00 | 56 | 1004.6 |
| 20260505063252 | 66 | 146 | 4.3 | 8.7 | 0.00 | 0.00 | 0.00 | 53 | 1004.7 |
| 20260505062749 | 66 | 158 | 6.1 | 7.8 | 0.00 | 0.00 | 0.00 | 53 | 1004.5 |
| 20260505062246 | 66 | 152 | 6.1 | 7.8 | 0.00 | 0.00 | 0.00 | 53 | 1004.4 |
| 20260505061743 | 67 | 158 | 5.2 | 10.4 | 0.00 | 0.00 | 0.00 | 52 | 1004.5 |
| 20260505061241 | 66 | 149 | 6.1 | 9.6 | 0.00 | 0.00 | 0.00 | 53 | 1004.5 |
| 20260505060738 | 67 | 161 | 7.0 | 10.4 | 0.00 | 0.00 | 0.00 | 52 | 1004.3 |
| 20260505060235 | 66 | 149 | 7.0 | 11.3 | 0.00 | 0.00 | 0.00 | 54 | 1004.3 |
| 20260505055730 | 66 | 161 | 7.0 | 9.6 | 0.00 | 0.00 | 0.00 | 54 | 1004.3 |
| 20260505055227 | 66 | 154 | 3.5 | 7.8 | 0.00 | 0.00 | 0.00 | 55 | 1004.4 |
| 20260505054724 | 66 | 173 | 2.6 | 7.0 | 0.00 | 0.00 | 0.00 | 54 | 1004.4 |
| 20260505054222 | 67 | 159 | 7.0 | 7.8 | 0.00 | 0.00 | 0.00 | 52 | 1004.2 |
| 20260505053720 | 67 | 154 | 4.3 | 7.8 | 0.00 | 0.00 | 0.00 | 52 | 1004.3 |
| 20260505053216 | 66 | 157 | 5.2 | 7.8 | 0.00 | 0.00 | 0.00 | 54 | 1004.4 |
| 20260505052713 | 67 | 163 | 3.5 | 7.0 | 0.00 | 0.00 | 0.00 | 54 | 1004.3 |
| 20260505052210 | 67 | 160 | 5.2 | 7.8 | 0.00 | 0.00 | 0.00 | 52 | 1004.2 |
| 20260505051707 | 68 | 161 | 6.1 | 7.0 | 0.00 | 0.00 | 0.00 | 52 | 1004.4 |
| 20260505051205 | 68 | 157 | 6.1 | 7.8 | 0.00 | 0.00 | 0.00 | 50 | 1004.4 |
| 20260505050703 | 68 | 152 | 6.1 | 8.7 | 0.00 | 0.00 | 0.00 | 50 | 1004.2 |
| 20260505050201 | 68 | 155 | 6.1 | 7.8 | 0.00 | 0.00 | 0.00 | 50 | 1004.3 |
| 20260505041636 | 69 | 146 | 4.3 | 8.7 | 0.00 | 0.00 | 0.00 | 51 | 1004.2 |
| 20260505041134 | 69 | 156 | 5.2 | 8.7 | 0.00 | 0.00 | 0.00 | 51 | 1004.2 |
| 20260505040630 | 68 | 137 | 8.7 | 10.4 | 0.00 | 0.00 | 0.00 | 52 | 1004.3 |
| 20260505040128 | 68 | 144 | 4.3 | 7.0 | 0.00 | 0.00 | 0.00 | 53 | 1004.1 |
| 20260505035624 | 68 | 149 | 5.2 | 7.0 | 0.00 | 0.00 | 0.00 | 53 | 1004.1 |
| 20260505035120 | 69 | 146 | 4.3 | 7.0 | 0.00 | 0.00 | 0.00 | 53 | 1004.1 |
| 20260505034617 | 69 | 137 | 4.3 | 6.1 | 0.00 | 0.00 | 0.00 | 54 | 1003.9 |
| 20260505034114 | 69 | 145 | 4.3 | 7.0 | 0.00 | 0.00 | 0.00 | 53 | 1004.0 |
| 20260505033611 | 69 | 146 | 6.1 | 6.1 | 0.00 | 0.00 | 0.00 | 53 | 1003.8 |
| 20260505033109 | 70 | 148 | 4.3 | 6.1 | 0.00 | 0.00 | 0.00 | 51 | 1003.8 |
| 20260505032607 | 69 | 149 | 6.1 | 7.8 | 0.00 | 0.00 | 0.00 | 54 | 1003.8 |
| 20260505032103 | 70 | 140 | 3.5 | 5.2 | 0.00 | 0.00 | 0.00 | 51 | 1003.6 |
| 20260505031600 | 71 | 141 | 3.5 | 6.1 | 0.00 | 0.00 | 0.00 | 49 | 1003.8 |
| 20260505031056 | 72 | 149 | 3.5 | 6.1 | 0.00 | 0.00 | 0.00 | 47 | 1003.8 |
| 20260505030553 | 72 | 160 | 5.2 | 5.2 | 0.00 | 0.00 | 0.00 | 47 | 1003.6 |
| 20260505030049 | 73 | 149 | 4.3 | 5.2 | 0.00 | 0.00 | 0.00 | 47 | 1003.7 |
| 20260505025545 | 73 | 152 | 3.5 | 4.3 | 0.00 | 0.00 | 0.00 | 49 | 1003.8 |
| 20260505025045 | 73 | 169 | 2.6 | 4.3 | 0.00 | 0.00 | 0.00 | 49 | 1003.7 |
| 20260505024541 | 74 | 177 | 1.7 | 3.5 | 0.00 | 0.00 | 0.00 | 50 | 1003.5 |
| 20260505024038 | 75 | 197 | 0.0 | 1.7 | 0.00 | 0.00 | 0.00 | 49 | 1003.6 |
| 20260505023535 | 77 | 160 | 1.7 | 5.2 | 0.00 | 0.00 | 0.00 | 44 | 1003.6 |
| 20260505023033 | 77 | 150 | 3.5 | 7.0 | 0.00 | 0.00 | 0.00 | 42 | 1003.4 |
| 20260505022530 | 78 | 152 | 4.3 | 5.2 | 0.00 | 0.00 | 0.00 | 42 | 1003.5 |
| 20260505022027 | 78 | 159 | 3.5 | 4.3 | 0.00 | 0.00 | 0.00 | 40 | 1003.5 |
| 20260505021524 | 79 | 153 | 3.5 | 5.2 | 0.00 | 0.00 | 0.00 | 36 | 1003.4 |
| 20260505021021 | 80 | 150 | 3.5 | 5.2 | 0.00 | 0.00 | 0.00 | 35 | 1003.3 |
| 20260505020520 | 80 | 173 | 1.7 | 3.5 | 0.00 | 0.00 | 0.00 | 36 | 1003.5 |
| 20260505020018 | 80 | 168 | 3.5 | 4.3 | 0.00 | 0.00 | 0.00 | 35 | 1003.4 |
| 20260505015515 | 81 | 144 | 5.2 | 5.2 | 0.00 | 0.00 | 0.00 | 35 | 1003.6 |
| 20260505015012 | 81 | 131 | 3.5 | 5.2 | 0.00 | 0.00 | 0.00 | 34 | 1003.9 |
| 20260505014508 | 81 | 180 | 1.7 | 5.2 | 0.00 | 0.00 | 0.00 | 33 | 1003.7 |
| 20260505014006 | 83 | 155 | 2.6 | 4.3 | 0.00 | 0.00 | 0.00 | 34 | 1003.9 |
| 20260505013503 | 83 | 160 | 0.0 | 1.7 | 0.00 | 0.00 | 0.00 | 31 | 1003.7 |
| 20260505013000 | 82 | 204 | 0.0 | 2.6 | 0.00 | 0.00 | 0.00 | 33 | 1003.9 |
| 20260505012458 | 82 | 163 | 2.6 | 4.3 | 0.00 | 0.00 | 0.00 | 30 | 1003.9 |
| 20260505011955 | 83 | 164 | 0.0 | 4.3 | 0.00 | 0.00 | 0.00 | 33 | 1003.9 |
| 20260505011450 | 84 | 281 | 0.9 | 2.6 | 0.00 | 0.00 | 0.00 | 29 | 1004.1 |
| 20260505010947 | 84 | 255 | 0.0 | 4.3 | 0.00 | 0.00 | 0.00 | 34 | 1004.2 |
| 20260505010443 | 86 | 94 | 1.7 | 2.6 | 0.00 | 0.00 | 0.00 | 30 | 1004.2 |
| 20260505005939 | 87 | 230 | 0.0 | 0.9 | 0.00 | 0.00 | 0.00 | 33 | 1004.1 |
| 20260505005436 | 87 | 334 | 0.0 | 2.6 | 0.00 | 0.00 | 0.00 | 33 | 1004.2 |
| 20260505004934 | 87 | 242 | 0.9 | 2.6 | 0.00 | 0.00 | 0.00 | 29 | 1003.7 |
| 20260505004430 | 87 | 311 | 0.0 | 1.7 | 0.00 | 0.00 | 0.00 | 32 | 1004.3 |
| 20260505003927 | 86 | 269 | 0.0 | 2.6 | 0.00 | 0.00 | 0.00 | 30 | 1004.2 |
| 20260505003425 | 86 | 293 | 1.7 | 3.5 | 0.00 | 0.00 | 0.00 | 37 | 1004.1 |
| 20260505002920 | 86 | 353 | 0.9 | 3.5 | 0.00 | 0.00 | 0.00 | 30 | 1004.1 |
| 20260505002417 | 87 | 328 | 2.6 | 2.6 | 0.00 | 0.00 | 0.00 | 27 | 1004.3 |
| 20260505001916 | 88 | 324 | 0.9 | 1.7 | 0.00 | 0.00 | 0.00 | 30 | 1004.5 |
| 20260505001413 | 87 | 261 | 0.0 | 1.7 | 0.00 | 0.00 | 0.00 | 26 | 1004.5 |
| 20260505000910 | 87 | 359 | 0.9 | 2.6 | 0.00 | 0.00 | 0.00 | 36 | 1004.5 |
| 20260505000408 | 86 | 297 | 0.0 | 1.7 | 0.00 | 0.00 | 0.00 | 27 | 1004.6 |
| 20260504235904 | 85 | 339 | 1.7 | 3.5 | 0.00 | 0.00 | 0.00 | 30 | 1004.6 |
| 20260504235401 | 86 | 228 | 1.7 | 3.5 | 0.00 | 0.00 | 0.00 | 28 | 1004.6 |
| 20260504234857 | 86 | 230 | 0.0 | 2.6 | 0.00 | 0.00 | 0.00 | 29 | 1004.4 |
| 20260504234355 | 86 | 347 | 0.9 | 4.3 | 0.00 | 0.00 | 0.00 | 32 | 1004.4 |
| 20260504233851 | 87 | 258 | 0.9 | 1.7 | 0.00 | 0.00 | 0.00 | 30 | 1004.5 |
| 20260504233347 | 87 | 300 | 1.7 | 2.6 | 0.00 | 0.00 | 0.00 | 32 | 1004.7 |
| 20260504232844 | 87 | 286 | 0.0 | 1.7 | 0.00 | 0.00 | 0.00 | 35 | 1004.4 |
| 20260504232341 | 85 | 78 | 1.7 | 2.6 | 0.00 | 0.00 | 0.00 | 27 | 1004.5 |
| 20260504231838 | 84 | 169 | 0.0 | 3.5 | 0.00 | 0.00 | 0.00 | 29 | 1004.5 |
| 20260504231334 | 84 | 336 | 0.0 | 2.6 | 0.00 | 0.00 | 0.00 | 27 | 1004.7 |
| 20260504230831 | 85 | 21 | 3.5 | 4.3 | 0.00 | 0.00 | 0.00 | 33 | 1004.5 |
| 20260504230329 | 86 | 344 | 0.9 | 2.6 | 0.00 | 0.00 | 0.00 | 28 | 1004.7 |
| 20260504225827 | 86 | 258 | 1.7 | 3.5 | 0.00 | 0.00 | 0.00 | 28 | 1004.8 |
| 20260504225323 | 87 | 252 | 0.0 | 0.9 | 0.00 | 0.00 | 0.00 | 27 | 1004.7 |
| 20260504224821 | 86 | 333 | 0.9 | 2.6 | 0.00 | 0.00 | 0.00 | 24 | 1004.9 |
| 20260504224318 | 84 | 336 | 0.0 | 2.6 | 0.00 | 0.00 | 0.00 | 24 | 1005.0 |
| 20260504223814 | 83 | 327 | 2.6 | 3.5 | 0.00 | 0.00 | 0.00 | 27 | 1005.0 |
| 20260504223310 | 82 | 347 | 2.6 | 4.3 | 0.00 | 0.00 | 0.00 | 28 | 1005.0 |
| 20260504222807 | 84 | 343 | 2.6 | 4.3 | 0.00 | 0.00 | 0.00 | 29 | 1005.1 |
| 20260504222305 | 86 | 261 | 1.7 | 2.6 | 0.00 | 0.00 | 0.00 | 29 | 1005.2 |
| 20260504221801 | 85 | 301 | 1.7 | 2.6 | 0.00 | 0.00 | 0.00 | 33 | 1005.2 |
| 20260504221258 | 85 | 267 | 1.7 | 4.3 | 0.00 | 0.00 | 0.00 | 33 | 1005.2 |
| 20260504220755 | 84 | 297 | 1.7 | 2.6 | 0.00 | 0.00 | 0.00 | 25 | 1005.0 |
| 20260504220252 | 83 | 10 | 2.6 | 5.2 | 0.00 | 0.00 | 0.00 | 30 | 1005.3 |
| 20260504215749 | 83 | 358 | 1.7 | 3.5 | 0.00 | 0.00 | 0.00 | 36 | 1005.4 |
| 20260504215246 | 84 | 357 | 1.7 | 4.3 | 0.00 | 0.00 | 0.00 | 32 | 1005.5 |
| 20260504214741 | 84 | 329 | 1.7 | 6.1 | 0.00 | 0.00 | 0.00 | 35 | 1005.6 |
| 20260504214238 | 84 | 220 | 1.7 | 3.5 | 0.00 | 0.00 | 0.00 | 33 | 1005.6 |
| 20260504213735 | 85 | 283 | 1.7 | 3.5 | 0.00 | 0.00 | 0.00 | 34 | 1005.7 |
| 20260504213231 | 85 | 254 | 0.9 | 3.5 | 0.00 | 0.00 | 0.00 | 33 | 1005.9 |
| 20260504212728 | 83 | 333 | 1.7 | 3.5 | 0.00 | 0.00 | 0.00 | 33 | 1005.6 |
| 20260504212225 | 83 | 243 | 1.7 | 3.5 | 0.00 | 0.00 | 0.00 | 35 | 1005.9 |
| 20260504211723 | 82 | 335 | 1.7 | 4.3 | 0.00 | 0.00 | 0.00 | 36 | 1006.0 |
| 20260504211219 | 81 | 317 | 2.6 | 5.2 | 0.00 | 0.00 | 0.00 | 33 | 1006.2 |
| 20260504210716 | 81 | 337 | 0.0 | 4.3 | 0.00 | 0.00 | 0.00 | 33 | 1005.9 |
| 20260504210213 | 81 | 336 | 2.6 | 7.0 | 0.00 | 0.00 | 0.00 | 37 | 1005.9 |
| 20260504205710 | 81 | 309 | 3.5 | 5.2 | 0.00 | 0.00 | 0.00 | 36 | 1006.0 |
| 20260504205208 | 81 | 328 | 2.6 | 3.5 | 0.00 | 0.00 | 0.00 | 41 | 1006.0 |
| 20260504204706 | 80 | 350 | 2.6 | 5.2 | 0.00 | 0.00 | 0.00 | 35 | 1006.2 |
| 20260504204204 | 80 | 341 | 2.6 | 4.3 | 0.00 | 0.00 | 0.00 | 33 | 1006.4 |
| 20260504203703 | 81 | 239 | 1.7 | 5.2 | 0.00 | 0.00 | 0.00 | 40 | 1006.2 |
| 20260504203200 | 80 | 319 | 2.6 | 7.0 | 0.00 | 0.00 | 0.00 | 35 | 1006.4 |
| 20260504202700 | 80 | 314 | 3.5 | 6.1 | 0.00 | 0.00 | 0.00 | 36 | 1006.6 |
| 20260504202158 | 79 | 337 | 3.5 | 7.8 | 0.00 | 0.00 | 0.00 | 40 | 1006.5 |
| 20260504201654 | 79 | 305 | 3.5 | 7.0 | 0.00 | 0.00 | 0.00 | 40 | 1006.5 |
| 20260504201152 | 80 | 332 | 3.5 | 4.3 | 0.00 | 0.00 | 0.00 | 41 | 1006.4 |
| 20260504200649 | 79 | 320 | 3.5 | 7.0 | 0.00 | 0.00 | 0.00 | 40 | 1006.5 |
| 20260504200145 | 80 | 322 | 4.3 | 6.1 | 0.00 | 0.00 | 0.00 | 39 | 1006.6 |
| 20260504195641 | 80 | 281 | 1.7 | 4.3 | 0.00 | 0.00 | 0.00 | 46 | 1006.6 |
| 20260504195137 | 79 | 300 | 1.7 | 4.3 | 0.00 | 0.00 | 0.00 | 45 | 1006.5 |
| 20260504194634 | 79 | 340 | 0.9 | 3.5 | 0.00 | 0.00 | 0.00 | 40 | 1006.4 |
| 20260504194130 | 79 | 281 | 1.7 | 4.3 | 0.00 | 0.00 | 0.00 | 43 | 1006.6 |
| 20260504193627 | 79 | 8 | 5.2 | 6.1 | 0.00 | 0.00 | 0.00 | 42 | 1006.5 |
| 20260504193125 | 79 | 330 | 2.6 | 6.1 | 0.00 | 0.00 | 0.00 | 44 | 1006.4 |
| 20260504192623 | 79 | 358 | 2.6 | 5.2 | 0.00 | 0.00 | 0.00 | 40 | 1006.6 |
| 20260504192121 | 79 | 322 | 0.9 | 7.0 | 0.00 | 0.00 | 0.00 | 44 | 1006.6 |
| 20260504191619 | 79 | 234 | 1.7 | 3.5 | 0.00 | 0.00 | 0.00 | 39 | 1006.6 |
| 20260504191115 | 79 | 242 | 1.7 | 2.6 | 0.00 | 0.00 | 0.00 | 44 | 1007.0 |
| 20260504190611 | 78 | 55 | 0.0 | 3.5 | 0.00 | 0.00 | 0.00 | 45 | 1006.7 |
| 20260504190108 | 78 | 322 | 2.6 | 5.2 | 0.00 | 0.00 | 0.00 | 42 | 1006.9 |
| 20260504185604 | 79 | 258 | 1.7 | 4.3 | 0.00 | 0.00 | 0.00 | 43 | 1006.9 |
| 20260504185101 | 78 | 209 | 0.0 | 2.6 | 0.00 | 0.00 | 0.00 | 39 | 1007.0 |
| 20260504184556 | 78 | 342 | 3.5 | 6.1 | 0.00 | 0.00 | 0.00 | 40 | 1006.9 |
| 20260504184052 | 78 | 288 | 0.9 | 2.6 | 0.00 | 0.00 | 0.00 | 42 | 1007.0 |
| 20260504183549 | 78 | 186 | 1.7 | 3.5 | 0.00 | 0.00 | 0.00 | 43 | 1007.0 |
| 20260504183047 | 77 | 351 | 0.9 | 6.1 | 0.00 | 0.00 | 0.00 | 41 | 1007.0 |
| 20260504182544 | 77 | 350 | 2.6 | 3.5 | 0.00 | 0.00 | 0.00 | 44 | 1007.1 |
| 20260504182041 | 77 | 192 | 1.7 | 2.6 | 0.00 | 0.00 | 0.00 | 42 | 1007.1 |
| 20260504181538 | 77 | 302 | 0.9 | 2.6 | 0.00 | 0.00 | 0.00 | 47 | 1007.2 |
| 20260504181037 | 76 | 338 | 1.7 | 2.6 | 0.00 | 0.00 | 0.00 | 45 | 1007.1 |
| 20260504180535 | 76 | 337 | 2.6 | 4.3 | 0.00 | 0.00 | 0.00 | 44 | 1007.2 |
| 20260504180034 | 75 | 315 | 2.6 | 6.1 | 0.00 | 0.00 | 0.00 | 51 | 1007.2 |
| 20260504175530 | 75 | 345 | 1.7 | 4.3 | 0.00 | 0.00 | 0.00 | 46 | 1007.2 |
| 20260504175027 | 75 | 308 | 0.9 | 2.6 | 0.00 | 0.00 | 0.00 | 52 | 1007.4 |
| 20260504174525 | 75 | 331 | 2.6 | 3.5 | 0.00 | 0.00 | 0.00 | 46 | 1007.0 |
| 20260504174022 | 75 | 323 | 4.3 | 4.3 | 0.00 | 0.00 | 0.00 | 49 | 1007.1 |
| 20260504173519 | 75 | 262 | 0.0 | 4.3 | 0.00 | 0.00 | 0.00 | 52 | 1007.1 |
| 20260504173016 | 74 | 345 | 1.7 | 6.1 | 0.00 | 0.00 | 0.00 | 49 | 1007.2 |
| 20260504172512 | 73 | 356 | 4.3 | 6.1 | 0.00 | 0.00 | 0.00 | 50 | 1007.0 |
| 20260504172008 | 74 | 277 | 0.0 | 3.5 | 0.00 | 0.00 | 0.00 | 49 | 1007.2 |
| 20260504171506 | 73 | 349 | 1.7 | 4.3 | 0.00 | 0.00 | 0.00 | 50 | 1007.1 |
| 20260504171003 | 72 | 336 | 1.7 | 6.1 | 0.00 | 0.00 | 0.00 | 52 | 1007.0 |